Вернуться в каталог

SL-12 R/B(2)

АктивенHEO
NORAD 25660·ROCKET BODY·🇷🇺 Russia

Запущен Mar 21, 1999 с Baikonur Cosmodrome

Loading…

Ближайшие Пролёты (ближайшие 24 часа)

TLE

СвежийSource: Space-Track

Эпоха: Sep 14, 2026, 14:13 UTC

1 25660U 99013D   26257.59243441 -.00000129  00000-0  00000+0 0  9997
2 25660  13.1212  93.9673 4596390 104.2493  38.1511  1.74923396175665

Отслеживайте SL-12 R/B(2) в реальном времени с AllMySat

Download on the App Store